Location: Newark
(33.6333°S, 78.8500°W)
Time: 07:13:31
(UTC+00:00)

Tiros 1 despin weight - Pass Details

Date: 23 September 2019
Orbit: 594 x 643 km, 48.2° (Epoch: 15 October)

Event Time Altitude Azimuth Distance (km) Brightness Sun altitude
Rises 07:30:49 0° 234° (SW) 2,923 - -42.5°
Reaches altitude 10° 07:34:20 10° 206° (SSW) 2,028 - -41.9°
Maximum altitude 07:36:37 13° 177° (S) 1,819 - -41.6°
Drops below altitude 10° 07:38:55 10° 147° (SSE) 2,040 - -41.2°
Exits shadow 07:39:16 - 144° (SE) 2,108 ? -41.1°
Sets 07:42:28 0° 120° (ESE) 2,956 ? -40.6°
